Millinocket, ME

12:33 PM EDT on July 23, 2016 (GMT -0400)
Millinocket Municipal

Weather History for KMLT - July, 2013

Change the Weather History Date:

Tuesday, July 9, 2013

  Actual Average Record
Temperature  
Mean Temperature 68 °F 68 °F  
Max Temperature 81 °F 78 °F 97 °F (1955)
Min Temperature 55 °F 58 °F 42 °F (1954)
Degree Days  
Heating Degree Days 0 1  
Month to date heating degree days 3 9  
Since 1 June heating degree days 104 125  
Since 1 July heating degree days 3 9  
Cooling Degree Days 3 4  
Month to date cooling degree days 78 33  
Year to date cooling degree days 147 88  
Since 1 June cooling degree days 139 82  
Growing Degree Days 18 (Base 50)    
Moisture  
Dew Point 59 °F    
Average Humidity 68    
Maximum Humidity 93    
Minimum Humidity 42    
Precipitation  
Precipitation 0.00 in 0.14 in 1.46 in (1938)
Month to date precipitation 0.26 1.21  
Year to date precipitation 17.13 20.35  
Sea Level Pressure  
Sea Level Pressure 30.12 in    
Wind  
Wind Speed 2 mph (SSE)    
Max Wind Speed 9 mph    
Max Gust Speed 17 mph    
Visibility 10 miles    
Events      
T = Trace of Precipitation, MM = Missing Value Source: NWS Daily Summary

Daily Weather History Graph

Daily Weather History Graph

Search for Another Location

Airport or City:

Trip Planner

Search our weather history database for the weather conditions in past years. The results will help you decide how hot, cold, wet, or windy it might be!

Date:

Astronomy

Jul. 09, 2013 Rise Set
Actual Time 4:55 AM EDT 8:24 PM EDT
Civil Twilight 4:17 AM EDT 9:01 PM EDT
Nautical Twilight 3:28 AM EDT 9:50 PM EDT
Astronomical Twilight 2:24 AM EDT 10:54 PM EDT
Moon 6:23 AM EDT (7/9) 8:51 PM EDT (7/9)
Length of Visible Light 16h 44m
Length of Day
15h 29m
New Moon, 2% of the Moon is Illuminated
Jul 9
New Moon
Jul 15
First Quarter
Jul 22
Full
Jul 29
Last Quarter
Aug 6
New

Hourly Weather History & Observations

Time (EDT) Temp. Heat Index Dew Point Humidity Pressure Visibility Wind Dir Wind Speed Gust Speed Precip Events Conditions
12:53 AM 59.0 °F - 57.0 °F 93% 30.11 in 10.0 mi Calm Calm - N/A   Clear
1:53 AM 57.9 °F - 55.9 °F 93% 30.13 in 10.0 mi Calm Calm - N/A   Clear
2:53 AM 57.9 °F - 55.9 °F 93% 30.12 in 10.0 mi Calm Calm - N/A   Clear
3:53 AM 57.9 °F - 55.0 °F 90% 30.12 in 10.0 mi Calm Calm - N/A   Clear
4:53 AM 55.9 °F - 53.1 °F 90% 30.13 in 10.0 mi East 3.5 mph - N/A   Clear
5:53 AM 57.9 °F - 53.1 °F 84% 30.14 in 10.0 mi Calm Calm - N/A   Mostly Cloudy
6:53 AM 60.1 °F - 55.0 °F 83% 30.16 in 10.0 mi Calm Calm - N/A   Overcast
7:53 AM 62.1 °F - 55.9 °F 80% 30.17 in 10.0 mi Calm Calm - N/A   Mostly Cloudy
8:53 AM 66.0 °F - 57.0 °F 73% 30.17 in 10.0 mi Calm Calm - N/A   Scattered Clouds
9:53 AM 72.0 °F - 60.1 °F 66% 30.15 in 10.0 mi Calm Calm - N/A   Clear
10:53 AM 73.0 °F - 61.0 °F 66% 30.15 in 10.0 mi Calm Calm - N/A   Partly Cloudy
11:53 AM 75.9 °F - 59.0 °F 56% 30.14 in 10.0 mi Calm Calm - N/A   Mostly Cloudy
12:53 PM 80.1 °F 80.7 °F 59.0 °F 48% 30.13 in 10.0 mi SE 3.5 mph - N/A   Mostly Cloudy
1:53 PM 79.0 °F - 55.9 °F 45% 30.12 in 10.0 mi Variable 5.8 mph - N/A   Clear
2:53 PM 79.0 °F - 55.9 °F 45% 30.11 in 10.0 mi Variable 3.5 mph - N/A   Clear
3:53 PM 80.1 °F 80.2 °F 55.9 °F 43% 30.09 in 10.0 mi Variable 4.6 mph - N/A   Clear
4:53 PM 81.0 °F 81.0 °F 57.0 °F 44% 30.09 in 10.0 mi Variable 4.6 mph - N/A   Clear
5:53 PM 78.1 °F - 62.1 °F 58% 30.09 in 10.0 mi Variable 3.5 mph - N/A   Clear
6:53 PM 75.0 °F - 63.0 °F 66% 30.09 in 10.0 mi Variable 3.5 mph - N/A   Clear
7:53 PM 73.0 °F - 64.0 °F 73% 30.08 in 10.0 mi Variable 4.6 mph - N/A   Partly Cloudy
8:53 PM 72.0 °F - 64.0 °F 76% 30.09 in 10.0 mi SSE 3.5 mph - N/A   Clear
9:53 PM 69.1 °F - 64.0 °F 84% 30.10 in 10.0 mi South 5.8 mph - N/A   Scattered Clouds
10:03 PM 69.8 °F - 64.4 °F 83% 30.09 in 10.0 mi South 8.1 mph - N/A   Mostly Cloudy
10:31 PM 68.0 °F - 62.6 °F 83% 30.10 in 10.0 mi Variable 4.6 mph - N/A   Overcast
10:43 PM 68.0 °F - 62.6 °F 83% 30.10 in 10.0 mi South 4.6 mph - N/A   Overcast
10:53 PM 68.0 °F - 63.0 °F 84% 30.12 in 10.0 mi South 4.6 mph - N/A   Overcast
11:53 PM 68.0 °F - 63.0 °F 84% 30.11 in 10.0 mi Variable 4.6 mph - N/A   Overcast